Location: Arroyo Grande
(40.2671°N, 4.2512°W)
Time: 05:13:46
(UTC+00:00)

RESURS DK-1 - Pass Details

Date: 03 February 2023
Orbit: 549 x 557 km, 69.9° (Epoch: 25 March)

Event Time Altitude Azimuth Distance (km) Brightness Sun altitude
Rises 18:12:04 0° 350° (N) 2,738 5.8 -7.1°
Reaches altitude 10° 18:14:53 10° 10° (N) 1,841 4.7 -7.6°
Maximum altitude 18:17:42 18° 54° (NE) 1,416 3.9 -8.1°
Drops below altitude 10° 18:20:31 10° 97° (E) 1,838 4.4 -8.6°
Enters shadow 18:20:50 - 100° (E) 1,927 4.5 -8.7°
